CW6421 Weather Reports


time (UTC)temp
C
wind
direction
speed
KPH
gust
KPH
rain 1hr
cm
rain 24hr
cm
rain mn
cm
humidity
%
barometer
mb
20260510163526 20 287 3.2 12.9 0.00 0.00 0.00 47 1010.0
20260510162527 20 289 1.6 14.5 0.00 0.00 0.00 47 1010.0
20260510161529 20 4 3.2 12.9 0.00 0.00 0.00 48 1010.0
20260510160528 20 285 3.2 17.7 0.00 0.00 0.00 46 1010.7
20260510154530 21 328 6.4 17.7 0.00 0.00 0.00 45 1010.7
20260510153527 21 328 4.8 20.9 0.00 0.00 0.00 45 1010.7
20260510152528 21 329 9.7 19.3 0.00 0.00 0.00 45 1010.7
20260510151529 21 293 8.0 17.7 0.00 0.00 0.00 46 1010.7
20260510150528 22 296 8.0 14.5 0.00 0.00 0.00 45 1011.5
20260510145528 22 299 8.0 16.1 0.00 0.00 0.00 45 1011.5
20260510144529 23 308 6.4 14.5 0.00 0.00 0.00 45 1011.5
20260510143527 22 300 8.0 14.5 0.00 0.00 0.00 45 1011.5
20260510142526 22 303 6.4 14.5 0.00 0.00 0.00 45 1011.5
20260510141530 22 247 6.4 14.5 0.00 0.00 0.00 46 1011.5
20260510135527 21 241 3.2 12.9 0.00 0.00 0.00 47 1012.1
20260510133527 22 174 3.2 12.9 0.00 0.00 0.00 47 1012.1
20260510130527 21 177 8.0 29.0 0.00 0.00 0.00 51 1012.7
20260510124529 21 220 4.8 25.7 0.00 0.00 0.00 50 1012.7
20260510123528 21 215 4.8 29.0 0.00 0.00 0.00 51 1012.7
20260510122528 22 220 6.4 27.4 0.00 0.00 0.00 51 1012.7
20260510121529 21 273 8.0 25.7 0.00 0.00 0.00 52 1012.7
20260510120526 21 166 4.8 22.5 0.00 0.00 0.00 53 1013.3
20260510115527 20 174 6.4 24.1 0.00 0.00 0.00 53 1013.3
20260510114529 20 200 6.4 20.9 0.00 0.00 0.00 52 1013.3
20260510113526 21 186 6.4 24.1 0.00 0.00 0.00 52 1013.3
20260510112527 21 199 6.4 22.5 0.00 0.00 0.00 54 1013.3
20260510111529 21 178 11.3 24.1 0.00 0.00 0.00 54 1013.3
20260510110529 20 160 11.3 22.5 0.00 0.00 0.00 56 1013.9
20260510105527 20 171 9.7 24.1 0.00 0.00 0.00 53 1013.9
20260510103528 20 177 12.9 20.9 0.00 0.00 0.00 56 1013.9
20260510102526 19 174 14.5 19.3 0.00 0.00 0.00 57 1013.9
20260510100527 18 154 14.5 19.3 0.00 0.00 0.00 60 1014.7
20260510095526 18 147 12.9 19.3 0.00 0.00 0.00 59 1014.7
20260510093527 17 160 6.4 19.3 0.00 0.00 0.00 61 1014.7
20260510092527 17 177 4.8 19.3 0.00 0.00 0.00 62 1014.7
20260510091529 17 179 6.4 20.9 0.00 0.00 0.00 64 1014.7
20260510090528 16 162 6.4 22.5 0.00 0.00 0.00 65 1015.1
20260510085527 16 170 3.2 22.5 0.00 0.00 0.00 65 1015.1
20260510082527 15 177 12.9 22.5 0.00 0.00 0.00 69 1015.1
20260510081530 14 159 16.1 24.1 0.00 0.00 0.00 69 1015.1
20260510080526 14 163 16.1 19.3 0.00 0.00 0.00 70 1015.7
20260510075527 14 160 14.5 16.1 0.00 0.00 0.00 71 1015.7
20260510074530 13 134 12.9 16.1 0.00 0.00 0.00 72 1015.7
20260510073528 13 141 12.9 12.9 0.00 0.00 0.00 72 1015.7
20260510072525 13 147 12.9 16.1 0.00 0.00 0.00 74 1015.7
20260510071530 12 136 12.9 16.1 0.00 0.00 0.00 75 1015.7
20260510070528 12 134 9.7 12.9 0.00 0.00 0.00 77 1016.1
20260510065526 12 145 11.3 16.1 0.00 0.00 0.00 78 1016.1
20260510063528 11 112 3.2 12.9 0.00 0.00 0.00 79 1016.1
20260510062527 11 128 4.8 12.9 0.00 0.00 0.00 79 1016.1
20260510061531 10 133 9.7 12.9 0.00 0.00 0.00 80 1016.1
20260510055525 10 136 8.0 11.3 0.00 0.00 0.00 81 1016.1
20260510054529 10 118 9.7 11.3 0.00 0.00 0.00 81 1016.1
20260510053527 9 103 9.7 12.9 0.00 0.00 0.00 82 1016.1
20260510051529 9 102 9.7 12.9 0.00 0.00 0.00 83 1016.1
20260510050528 8 100 9.7 12.9 0.00 0.00 0.00 83 1016.6
20260510045526 8 102 9.7 9.7 0.00 0.00 0.00 83 1016.6
20260510044530 8 85 4.8 9.7 0.00 0.00 0.00 83 1016.6
20260510043526 8 89 3.2 8.0 0.00 0.00 0.00 83 1016.6
20260510042528 8 77 4.8 8.0 0.00 0.00 0.00 83 1016.6
20260510040526 8 105 4.8 12.9 0.00 0.00 0.00 82 1016.6
20260510034529 8 79 3.2 12.9 0.00 0.00 0.00 82 1016.6
20260510033526 8 80 3.2 12.9 0.00 0.00 0.00 81 1016.6
20260510032527 8 71 3.2 12.9 0.00 0.00 0.00 81 1016.6
20260510031528 8 110 3.2 11.3 0.00 0.00 0.00 81 1016.6
20260510030529 8 124 4.8 11.3 0.00 0.00 0.00 80 1017.2
20260510025526 8 128 4.8 11.3 0.00 0.00 0.00 80 1017.2
20260510024528 8 130 6.4 11.3 0.00 0.00 0.00 80 1017.2
20260510022526 8 120 9.7 9.7 0.00 0.00 0.00 80 1017.2
20260510021529 9 97 6.4 12.9 0.00 0.00 0.00 80 1017.2
20260510020527 9 99 8.0 9.7 0.00 0.00 0.00 79 1017.9
20260510015527 9 110 9.7 9.7 0.00 0.00 0.00 79 1017.9
20260510014529 9 101 6.4 9.7 0.00 0.00 0.00 79 1017.9
20260510013526 9 99 9.7 9.7 0.00 0.00 0.00 79 1017.9
20260510004529 9 93 8.0 9.7 0.00 0.00 0.00 78 1018.7
20260510003527 10 106 9.7 11.3 0.00 0.00 0.00 78 1018.7
20260510002528 10 103 9.7 11.3 0.00 0.00 0.00 77 1018.7
20260510001529 10 110 4.8 6.4 0.00 0.00 0.00 77 1018.7
20260510000528 10 108 4.8 8.0 0.00 0.00 0.00 77 1019.1
20260509235538 10 92 6.4 8.0 0.00 0.00 0.00 77 1019.1
20260509233526 10 91 4.8 8.0 0.00 0.00 0.00 76 1019.1
20260509231529 10 97 4.8 8.0 0.00 0.00 0.00 75 1019.1
20260509230528 10 92 4.8 9.7 0.00 0.00 0.00 74 1019.4
20260509225526 10 100 4.8 8.0 0.00 0.00 0.00 74 1019.4
20260509224528 10 82 4.8 9.7 0.00 0.00 0.00 73 1019.4
20260509223527 10 86 3.2 9.7 0.00 0.00 0.00 73 1019.4
20260509221531 11 92 8.0 9.7 0.00 0.00 0.00 73 1019.4
20260509220528 11 92 6.4 8.0 0.00 0.00 0.00 72 1019.6
20260509215527 11 85 6.4 8.0 0.00 0.00 0.00 72 1019.6
20260509213526 11 108 3.2 8.0 0.00 0.00 0.00 71 1019.6
20260509212527 11 119 3.2 8.0 0.00 0.00 0.00 71 1019.6
20260509211530 11 90 3.2 8.0 0.00 0.00 0.00 70 1019.6
20260509210528 11 99 1.6 12.9 0.00 0.00 0.00 69 1019.3
20260509205526 11 97 3.2 14.5 0.00 0.00 0.00 69 1019.3
20260509204529 12 108 4.8 14.5 0.00 0.00 0.00 68 1019.3
20260509203527 12 112 8.0 16.1 0.00 0.00 0.00 68 1019.3
20260509202527 12 112 3.2 14.5 0.00 0.00 0.00 67 1019.3
20260509201530 12 138 6.4 14.5 0.00 0.00 0.00 67 1019.3
20260509200528 12 140 6.4 16.1 0.00 0.00 0.00 66 1019.0
20260509195526 12 124 6.4 14.5 0.00 0.00 0.00 65 1019.0
20260509194530 12 117 9.7 12.9 0.00 0.00 0.00 65 1019.0
20260509193527 13 115 6.4 12.9 0.00 0.00 0.00 64 1019.0
20260509192526 13 120 6.4 16.1 0.00 0.00 0.00 63 1019.0
20260509191530 13 110 6.4 14.5 0.00 0.00 0.00 62 1019.0
20260509190528 13 126 4.8 17.7 0.00 0.00 0.00 61 1018.9
20260509185527 14 122 4.8 17.7 0.00 0.00 0.00 60 1018.9
20260509184528 14 145 8.0 17.7 0.00 0.00 0.00 60 1018.9
20260509183526 14 131 4.8 16.1 0.00 0.00 0.00 59 1018.9
20260509181529 15 133 14.5 17.7 0.00 0.00 0.00 58 1018.9
20260509180528 15 131 12.9 19.3 0.00 0.00 0.00 58 1019.2
20260509175527 15 131 12.9 16.1 0.00 0.00 0.00 57 1019.2
20260509173527 15 77 9.7 16.1 0.00 0.00 0.00 56 1019.2
20260509172527 15 70 8.0 19.3 0.00 0.00 0.00 56 1019.2
20260509171531 16 88 11.3 16.1 0.00 0.00 0.00 56 1019.2
20260509170528 16 80 9.7 17.7 0.00 0.00 0.00 56 1019.8
20260509165526 16 86 11.3 19.3 0.00 0.00 0.00 55 1019.8
20260509164530 16 88 11.3 19.3 0.00 0.00 0.00 55 1019.8